SCP
2 2 2 3 3 3 2 2 2 1 1 1 1 1 1 1 1 1 1 1 1 1 1 1 1 1 1 1 1 1 0 0 0 0 0 0 0 0 0 0 0 0 0
2 3 3 3 3 3 2 2 2 1 1 1 1 1 1 1 1 1 1 1 1 1 1 1 1 1 1 1 1 1 0 0 0 0 0 0 0 0 0 0 0 0 0
3 3 3 3 3 3 3 2 2 2 2 1 1 2 2 2 2 1 1 1 1 1 1 1 1 1 1 1 1 1 0 0 0 0 0 0 0 0 0 1 1 0 0
3 3 3 3 3 3 3 3 3 2 2 2 2 2 2 2 1 1 1 1 1 1 1 1 1 1 1 1 1 1 1 1 0 0 0 0 0 0 0 1 1 1 0
3 3 3 3 4 4 4 3 3 3 2 2 2 2 2 2 1 1 1 1 1 1 1 1 1 1 1 1 1 1 1 1 1 0 0 0 0 0 0 1 1 1 1
3 3 3 4 4 4 4 4 3 3 3 2 2 2 2 2 1 1 1 1 1 1 1 1 1 1 1 1 1 1 1 1 1 0 0 0 0 0 0 1 1 1 1
4 4 4 4 5 5 4 4 3 3 3 3 3 2 2 2 2 2 2 2 1 1 1 1 1 1 1 1 1 1 1 1 1 1 1 1 1 1 1 1 1 1 1
5 5 4 5 5 4 4 3 3 3 3 4 3 2 2 2 2 2 2 2 2 1 1 1 1 1 1 1 1 1 1 1 1 1 1 1 1 1 1 1 1 0 0
6 5 4 4 3 3 3 3 3 3 3 4 3 3 2 2 2 2 2 2 2 1 1 1 1 1 1 1 1 1 1 1 1 1 1 1 1 1 1 1 1 0 0
6 5 4 3 3 2 2 2 2 2 3 3 4 3 2 2 2 2 2 2 2 1 1 1 1 1 1 1 1 1 1 1 1 1 1 1 1 1 1 1 1 0 0
6 5 4 3 3 2 2 2 2 2 3 3 3 3 2 2 2 2 2 2 2 2 1 1 1 1 1 1 1 1 1 1 1 1 1 1 1 1 1 1 1 0 0
6 5 4 3 3 3 2 2 3 3 3 3 3 3 3 2 2 2 2 2 2 2 2 2 2 2 1 2 2 2 1 1 2 2 1 1 1 1 1 1 1 0 0
6 5 4 3 3 2 2 2 3 4 4 3 3 3 3 3 3 3 3 3 3 2 2 2 2 2 2 2 2 2 2 2 2 2 1 1 1 1 1 1 1 0 0
5 4 4 4 3 2 2 2 3 3 4 4 3 3 4 4 5 4 5 4 4 4 3 2 2 1 2 2 2 2 2 2 2 2 1 1 1 1 1 1 1 1 1
4 4 4 3 3 2 2 2 2 3 3 3 3 3 4 5 5 5 5 6 6 5 3 2 1 1 1 1 2 2 2 2 2 2 2 1 1 1 1 1 1 1 1
3 3 4 3 3 2 2 1 2 2 3 3 3 3 4 5 6 6 6 6 6 5 2 1 0 0 0 1 1 2 2 2 2 2 2 1 1 1 1 1 1 1 1
3 3 4 4 3 2 2 1 1 2 2 3 3 3 4 5 5 5 6 6 5 3 1 0 0 0 0 0 1 1 2 2 2 2 2 2 1 1 1 1 1 1 1
2 3 4 4 3 2 2 1 1 1 2 2 3 3 3 4 4 5 5 5 4 2 0 0 0 0 0 0 1 1 1 2 2 2 2 2 2 1 1 1 1 1 1
2 3 4 4 3 2 2 1 0 0 1 2 2 3 3 3 3 4 4 4 2 1 0 0 0 0 0 0 0 1 1 1 2 2 2 2 2 2 1 1 1 1 1
2 2 3 3 2 2 2 1 0 0 1 1 2 2 2 2 2 3 3 3 1 0 0 0 0 0 0 0 0 0 1 1 1 2 2 2 2 2 1 1 1 1 1
2 2 2 2 2 2 2 1 0 0 0 1 2 2 2 2 2 3 3 2 1 0 0 0 0 0 0 0 0 0 0 1 1 1 2 2 2 1 1 1 1 1 1
2 2 2 2 2 2 2 1 0 0 0 1 2 2 2 2 2 2 2 1 0 0 0 0 0 0 0 0 0 0 0 0 0 1 1 1 1 2 1 1 1 1 1
1 1 1 2 2 2 2 1 0 0 0 1 2 3 3 2 2 2 2 1 0 0 0 0 0 0 0 0 0 0 0 0 0 0 0 1 1 1 1 1 1 1 1
1 1 1 1 2 2 2 1 1 0 0 0 1 2 3 3 2 2 2 1 0 0 0 0 0 0 0 0 0 0 0 0 0 0 0 0 1 1 1 1 1 1 1
0 1 1 1 1 1 1 1 1 0 0 0 1 2 3 3 3 2 2 1 0 0 0 0 0 0 0 0 0 0 0 0 0 0 0 0 0 0 1 1 1 1 1
0 1 1 1 1 1 1 1 1 0 0 0 0 1 2 3 3 3 2 1 0 0 0 0 0 0 0 0 0 0 0 0 0 0 0 0 0 0 0 1 1 1 1
Wind_Speed
5 6 6 5 6 7 7 8 8 8 8 8 7 8 7 7 7 7 7 7 7 7 8 8 8 9 9 9 9 9 9 9 10 10 10 10 9 9 8 6 5 6 8
6 7 7 5 6 7 7 7 8 8 7 7 7 7 7 7 7 7 6 6 6 7 7 8 8 8 8 9 8 8 8 8 9 9 7 7 8 8 7 7 6 5 6
6 7 8 5 6 7 7 7 8 8 7 7 7 7 7 7 7 7 7 6 6 7 7 7 7 8 8 8 7 7 8 8 8 6 3 4 6 7 6 6 6 6 5
6 6 7 7 6 7 7 7 8 7 7 7 7 7 7 7 7 7 7 6 6 6 6 6 7 7 7 7 7 6 6 7 6 2 2 4 4 6 5 5 5 5 4
6 6 7 6 7 7 7 7 7 7 7 7 7 7 7 7 7 6 6 6 6 5 6 6 6 6 6 6 6 6 6 5 3 1 3 4 4 5 5 4 5 4 3
6 6 7 6 6 6 6 6 6 7 7 6 6 6 6 6 6 6 6 5 5 5 5 5 5 5 5 5 5 5 5 3 2 2 2 2 3 4 4 3 4 3 3
5 5 6 6 6 6 6 5 6 6 6 6 6 6 5 5 5 5 5 5 5 4 4 4 4 4 4 4 4 4 4 1 0 1 1 1 3 3 3 2 2 2 2
5 4 5 6 5 5 5 5 5 6 6 6 5 5 5 5 5 5 5 5 4 4 4 3 4 4 4 3 3 3 3 2 1 0 0 1 3 2 2 2 2 2 2
4 4 4 4 5 5 5 5 5 5 5 5 5 5 5 5 4 4 4 4 4 4 3 2 2 3 2 2 2 2 2 3 2 0 1 0 2 2 2 2 2 3 3
3 3 3 4 4 4 4 5 4 4 4 5 4 5 5 5 4 4 3 4 3 3 3 2 1 2 2 2 2 1 1 3 2 1 1 1 2 3 3 3 3 4 4
2 2 2 3 3 3 3 4 4 4 4 3 4 4 3 2 2 2 3 3 3 3 2 2 1 2 1 1 1 0 3 2 2 1 1 2 3 5 4 4 5 5 5
3 2 1 2 2 3 2 3 2 2 2 2 2 3 2 1 1 1 3 2 2 2 1 2 1 1 2 1 2 3 2 3 2 2 1 2 5 6 6 5 5 5 5
3 2 2 1 2 2 2 2 2 1 2 2 2 2 2 1 1 1 1 1 1 0 0 1 1 1 1 1 2 2 2 2 2 2 1 2 5 6 6 6 5 5 5
4 3 3 2 2 2 2 2 2 2 2 1 2 2 2 1 1 1 1 0 1 1 1 1 1 1 2 2 3 3 3 2 2 2 1 3 6 7 7 6 6 6 6
4 4 3 3 3 2 2 2 2 2 2 2 2 2 2 2 2 1 1 1 1 1 1 1 2 2 2 2 3 3 4 4 4 4 2 2 5 6 7 7 7 7 7
5 4 3 3 3 2 2 2 2 2 2 2 2 2 3 2 2 2 2 1 1 1 1 2 2 2 2 3 3 4 4 4 4 4 4 3 3 5 6 7 7 7 7
5 4 3 3 3 3 2 2 1 2 2 2 2 2 3 2 2 2 2 2 1 1 2 2 2 2 2 3 4 4 3 4 4 4 4 3 3 3 4 6 6 7 7
4 3 3 3 3 2 2 2 1 1 2 2 2 2 3 3 3 2 2 2 2 2 2 2 2 2 2 3 3 3 3 3 4 4 4 3 3 3 3 4 5 6 7
3 3 3 2 2 2 2 2 1 1 1 2 2 2 2 3 3 3 2 2 2 2 2 2 2 3 3 3 3 4 3 3 4 4 4 4 3 3 3 2 4 5 6
2 2 3 3 2 2 2 2 1 2 1 2 2 2 2 2 3 3 2 2 2 2 2 3 3 3 3 3 3 4 4 4 3 4 4 3 3 3 4 4 3 3 4
1 2 2 3 3 3 2 2 2 2 2 2 2 2 3 3 3 3 2 3 3 3 3 3 3 3 2 2 3 3 3 4 4 3 3 3 3 3 4 4 3 3 2
2 2 2 3 3 3 2 2 1 1 2 2 2 2 3 3 3 3 3 3 3 3 4 4 3 3 2 2 2 3 3 3 3 3 3 3 4 3 3 4 4 4 4
2 2 2 3 3 3 3 2 2 2 2 2 3 2 3 3 3 3 4 3 3 3 3 4 4 4 3 3 3 3 3 3 2 3 4 4 3 3 4 4 4 4 4
2 2 2 3 3 3 3 3 3 3 3 3 2 2 3 4 4 3 4 4 4 4 4 4 4 4 4 4 3 3 4 3 3 3 3 3 4 4 5 4 4 4 4
2 2 2 2 3 3 3 3 4 3 3 2 2 3 3 3 3 3 4 4 4 4 4 4 4 5 4 4 3 3 3 4 4 4 5 4 4 4 4 4 4 4 4
2 2 2 3 3 3 3 3 4 4 3 3 3 3 3 2 3 4 3 4 4 4 4 4 5 5 5 5 4 4 4 4 3 4 5 5 5 4 4 4 4 4 4
Wind_Direction
152 146 133 137 132 125 117 113 108 107 106 105 101 96 94 94 93 98 98 100 98 99 100 98 94 90 86 83 80 79 75 73 75 75 74 74 72 71 71 71 79 89 81
145 144 133 140 132 126 121 117 111 106 105 104 103 100 95 92 90 90 95 97 98 97 98 96 92 89 85 83 82 80 77 75 75 70 71 81 74 68 67 59 49 67 76
142 143 143 138 134 130 124 120 114 110 105 103 102 98 98 96 91 87 88 90 94 95 95 93 90 88 84 82 82 82 80 78 74 70 72 88 85 71 65 62 60 65 69
143 145 143 135 135 129 125 122 115 110 106 105 102 96 92 94 92 88 86 83 88 93 95 93 91 90 86 82 82 84 86 83 75 53 78 70 77 72 61 58 57 55 59
143 144 131 135 137 132 128 124 121 115 108 105 103 97 91 88 86 83 82 81 81 88 93 94 91 92 91 86 82 83 88 88 84 65 69 70 72 67 57 55 50 47 47
142 144 131 134 137 136 134 130 126 120 114 108 102 96 91 86 85 80 76 77 77 79 94 97 95 89 86 87 89 87 85 90 168 90 74 74 70 60 48 49 43 38 37
135 134 134 131 134 134 134 134 131 122 114 111 105 100 95 89 83 78 72 70 71 75 83 91 98 94 89 86 88 87 78 44 222 98 78 64 56 41 31 26 21 13 5
131 130 129 129 127 128 131 132 131 124 115 110 105 99 95 92 87 79 73 69 61 61 71 87 91 91 90 85 84 82 60 343 220 135 86 66 43 11 1 0 341 335 337
130 134 133 139 137 123 118 117 120 116 112 108 102 93 88 89 86 84 74 68 60 53 51 75 98 94 89 87 80 75 46 347 273 257 272 37 32 321 318 320 313 312 311
129 138 143 143 146 146 136 107 102 103 106 108 102 88 85 90 88 82 83 66 58 51 40 44 95 101 83 80 79 70 355 264 249 246 254 33 335 293 296 300 296 294 292
134 145 156 154 155 154 151 128 125 116 108 117 115 97 112 139 127 117 76 60 57 51 38 27 73 95 96 130 113 283 248 247 259 268 274 356 289 282 284 284 288 287 286
178 173 169 174 175 175 168 159 162 159 146 158 153 147 159 149 98 79 97 79 63 50 48 43 44 168 227 213 186 223 238 253 257 258 298 328 284 278 280 281 283 284 284
193 189 187 189 189 189 183 180 173 169 158 168 165 165 176 170 153 169 155 144 149 192 205 87 224 241 257 265 257 248 262 266 262 266 275 307 284 278 278 276 279 283 283
197 203 195 196 192 200 206 192 183 176 174 174 175 189 196 196 196 196 202 260 268 271 291 279 282 278 273 263 261 258 254 260 264 267 275 284 280 277 279 277 280 281 280
198 202 203 198 196 197 203 209 192 188 189 184 186 194 207 207 206 208 208 223 263 277 271 281 284 281 275 272 266 263 257 258 259 258 258 267 278 275 277 278 280 281 279
211 208 205 203 200 200 207 213 204 192 190 197 186 194 204 210 212 215 215 221 243 269 284 277 281 275 277 274 272 271 266 265 259 257 262 255 262 274 276 280 279 282 283
215 211 205 202 204 201 207 211 218 195 191 193 191 201 203 210 213 217 222 223 234 259 262 266 276 270 272 275 271 272 269 265 264 262 260 264 258 257 273 280 280 284 285
208 202 202 192 193 199 202 200 198 213 201 196 194 201 205 211 219 219 223 226 229 246 250 253 261 261 259 268 274 272 266 261 257 256 255 257 264 266 260 276 280 284 287
208 195 190 182 185 188 193 190 183 181 210 206 196 197 208 215 221 223 226 225 221 237 246 250 261 268 266 268 277 277 270 263 256 249 247 255 264 271 274 267 275 284 286
212 193 180 171 185 187 182 183 174 172 198 211 208 205 217 223 226 229 225 221 222 231 237 239 252 267 269 273 280 282 276 264 252 248 250 251 259 270 278 278 268 268 277
195 198 192 186 191 190 185 196 199 197 200 213 221 226 228 231 231 233 231 224 225 234 241 243 247 254 264 274 275 279 267 250 244 249 247 252 257 269 275 275 278 281 273
199 209 209 202 201 198 204 212 224 222 226 222 229 233 237 236 233 235 233 231 231 239 241 240 240 244 256 251 264 277 263 236 216 239 251 259 267 268 269 276 279 277 284
206 215 222 220 211 202 200 194 190 198 217 219 222 229 238 239 234 237 242 238 234 236 239 242 237 241 244 247 254 256 265 263 306 234 239 249 261 268 270 272 274 277 280
225 219 223 225 212 205 203 204 204 217 226 233 233 232 236 235 237 237 244 239 237 236 240 242 243 251 244 242 249 257 272 287 273 274 242 243 259 265 270 274 275 278 280
226 219 215 225 215 210 210 211 217 228 235 234 233 232 236 233 235 237 242 240 237 238 242 246 244 245 247 244 244 247 251 256 256 261 270 268 272 269 270 272 272 272 276
225 216 213 219 224 213 212 215 219 229 235 237 241 242 245 242 237 237 245 245 242 242 244 246 245 243 244 245 245 243 246 247 249 256 266 273 277 274 273 267 269 271 275